Miscellaneous Local Product
Issued by NWS Hastings, NE

Home | Current Version | Previous Version | Graphics & Text | Print | Product List | Glossary On
Versions: 1 2 3 4 5 6 7 8 9 10 11 12 13 14 15 16 17 18 19 20 21 22 23 24 25 26 27 28 29 30 31 32 33 34 35 36 37 38 39 40 41 42 43 44 45 46 47 48 49 50
000
AXUS43 KGID 201702
MISGRI

GID CWA HOURLY WEATHER ROUNDUP
NATIONAL WEATHER SERVICE HASTINGS NE
1200 PM CDT SUN AUG 20 2017

NOTE: "FAIR" INDICATES FEW OR NO CLOUDS BELOW 12,000 FEET WITH NO
SIGNIFICANT WEATHER AND/OR OBSTRUCTIONS TO VISIBILITY.

...SOUTH CENTRAL NEBRASKA...

CITY           SKY/WX    TMP DP  RH WIND       PRES   REMARKS
GRAND ISLAND   SUNNY     79  70  74 SE10      29.95R
HASTINGS       SUNNY     81  69  67 SE8       29.95R
KEARNEY        SUNNY     80  70  71 VRB7      29.94S
ORD            MOSUNNY   76  64  66 SE9       29.96R
YORK           MOSUNNY   79  70  73 S13       29.95F
AURORA         CLOUDY    80  72  75 S7        29.96R
LEXINGTON      SUNNY     80  69  69 E3        29.95R
HOLDREGE       SUNNY     82  66  59 S7        29.93S
HEBRON         SUNNY     85  70  60 S5        29.95R

...NEBRASKA PANHANDLE...

CITY           SKY/WX    TMP DP  RH WIND       PRES   REMARKS
CHADRON        SUNNY     75  51  43 NE8       30.09F
ALLIANCE       CLOUDY    76  52  43 E17       30.08F
SCOTTSBLUFF    CLOUDY    78  59  51 E12G18    30.09S
SIDNEY         SUNNY     77  61  57 NE14G23   30.08F

...WESTERN AND NORTH CENTRAL NEBRASKA...

CITY           SKY/WX    TMP DP  RH WIND       PRES   REMARKS
VALENTINE      SUNNY     82  53  36 E21       30.01R
AINSWORTH      SUNNY     79  59  50 E16G22    29.99S
ONEILL         SUNNY     79  64  60 SE7       29.98F
BROKEN BOW     SUNNY     78  66  66 NE8       29.97R
IMPERIAL       SUNNY     81  62  52 NE9       29.98S
NORTH PLATTE   SUNNY     82  67  60 NE10      29.96R
MCCOOK         SUNNY     83  59  44 SE6       29.93S

...EASTERN NEBRASKA...

CITY           SKY/WX    TMP DP  RH WIND       PRES   REMARKS
NORFOLK        SUNNY     81  65  58 NE3       29.95F
SO SIOUX CITY  SUNNY     79  68  69 S10       29.97R
TEKAMAH        SUNNY     78  66  66 CALM      29.96F
COLUMBUS       SUNNY     78  69  73 E10       29.98S
ALBION         SUNNY     79  68  68 E3        29.98R
OMAHA EPPLEY   CLOUDY    73  66  78 NW7       29.97F
OFFUTT AFB     CLOUDY    70  65  85 SW3       29.98R
MILLARD        PTSUNNY   76  65  68 S3        29.98S
LINCOLN        PTSUNNY   77  67  71 E7        29.97S
NEBRASKA CITY  CLOUDY    73  68  84 NE10      30.01R
BEATRICE       SUNNY     84  67  55 SE9       29.96S
FALLS CITY     PTSUNNY   83  67  58 SE14      29.97R

...NORTHERN KANSAS...

CITY           SKY/WX    TMP DP  RH WIND       PRES   REMARKS
GOODLAND       SUNNY     85  59  41 N5        30.00R
HILL CITY      SUNNY     91  65  41 S7        29.93R HX  93
NORTON         SUNNY     88  55  33 S5        29.92F
PHILLIPSBURG   SUNNY     90  66  45 SE6       29.91S HX  92
SMITH CENTER   PTSUNNY   88  70  55 S12       29.91F HX  92
HAYS           PTSUNNY   92  67  43 S13       29.92F HX  95
RUSSELL        CLOUDY    88  68  51 S15       29.92S HX  91
CONCORDIA      SUNNY     86  73  65 S15       29.92F HX  93
SALINA         MOSUNNY   93  67  42 S16       29.93S HX  96
TOPEKA         SUNNY     85  72  65 SE13      29.98F HX  91



USA.gov is the U.S. government's official web portal to all federal, state and local government web resources and services.